Location: ???????
(55.3754°N, 39.3545°E)
Time: 01:32:33
(UTC+00:00)

Cosmos 1867 - Pass Details

Date: 14 April 2026
Orbit: 775 x 798 km, 65.0° (Epoch: 20 May)

Event Time Altitude Azimuth Distance (km) Brightness Sun altitude
Exits shadow 23:44:20 33° 198° (SSW) 1,323 4.2 -18.5°
Maximum altitude 23:46:44 63° 130° (SE) 888 3.8 -18.3°
Drops below altitude 10° 23:52:08 10° 50° (NE) 2,377 7.3 -17.9°
Sets 23:54:35 0° 48° (NE) 3,312 8.5 -17.6°
